Regional Weather Roundup
Issued by NWS

Home | Current Version | Previous Version | Graphics & Text | Print | Product List | Glossary On
Versions: 1 2 3 4 5 6 7 8 9 10 11 12 13 14 15 16 17 18 19 20 21 22 23 24 25 26 27 28 29 30 31 32 33 34 35 36 37 38 39 40 41 42 43 44 45 46 47 48 49 50
000
ASUS43 KOAX 171610
RWRNE

WEATHER ROUNDUP FOR NEBRASKA
NATIONAL WEATHER SERVICE OMAHA NE
1100 AM CDT THU AUG 17 2017

NOTES: SATELLITE DATA IS BEING USED TO AUGMENT CLOUD COVER ABOVE
       12000 FEET.
       "FAIR" INDICATES FEW OR NO CLOUDS BELOW 12,000 FEET WITH NO
       SIGNIFICANT WEATHER AND/OR OBSTRUCTIONS TO VISIBILITY.


NEZ001>004-019>022-054>056-171700-
NEBRASKA PANHANDLE

CITY           SKY/WX    TMP DP  RH WIND       PRES   REMARKS
SCOTTSBLUFF    SUNNY     72  55  55 E5        30.06R
ALLIANCE       SUNNY     76  53  44 MISG      30.04F
CHADRON        SUNNY     75  52  44 SW7       29.99S
GORDON         FAIR      74  54  49 SW12      30.02F
KIMBALL        SUNNY     76  54  47 SW7       30.12S
SIDNEY         SUNNY     75  51  43 S14       30.11F
$$

NEZ057>060-069>072-079>082-171700-
SOUTHWEST NEBRASKA

CITY           SKY/WX    TMP DP  RH WIND       PRES   REMARKS
NORTH PLATTE   SUNNY     74  60  61 SW10      30.07S
IMPERIAL       SUNNY     77  58  51 SW10      30.09F
LEXINGTON      SUNNY     74  60  61 W10       30.06S
MCCOOK         SUNNY     74  60  61 SW8       30.08F
OGALLALA       SUNNY     75  60  60 SW9       30.07F
$$

NEZ005>010-023>029-035>040-094-171700-
NORTH CENTRAL NEBRASKA

CITY           SKY/WX    TMP DP  RH WIND       PRES   REMARKS
VALENTINE      SUNNY     76  55  48 SW3       30.00F
AINSWORTH      SUNNY     73  59  61 SW7       30.01F
BROKEN BOW     SUNNY     74  59  59 W9        30.04S
O`NEILL        SUNNY     72  57  59 NW7       30.00S
ORD            SUNNY     73  52  47 W8        30.00F
THEDFORD       SUNNY     78  55  44 SW9       30.04F
$$

NEZ041-046>049-061>064-073>077-083>087-171700-
SOUTH CENTRAL NEBRASKA

CITY           SKY/WX    TMP DP  RH WIND       PRES   REMARKS
GRAND ISLAND   SUNNY     74  55  51 W10       30.02S
AURORA         SUNNY     71  58  62 W3        30.02S
HASTINGS       SUNNY     74  54  49 W10       30.04S
HEBRON         SUNNY     75  57  52 NW8       30.02R
HOLDREGE       SUNNY     71  60  67 W9        30.07R
KEARNEY        SUNNY     74  56  53 W10       30.05R
YORK           SUNNY     72  59  64 NW9       30.01S
$$

NEZ011>018-030>034-042>045-171700-
NORTHEAST NEBRASKA

CITY           SKY/WX    TMP DP  RH WIND       PRES   REMARKS
NORFOLK        SUNNY     71  58  63 W13       29.97R
ALBION         SUNNY     74  56  52 NW10      29.99F
BLAIR          RAIN      72  61  68 W15G21    29.93S
COLUMBUS       SUNNY     72  59  63 NW10      29.99R
FREMONT        SUNNY     73  61  64 NW14      29.96R
TEKAMAH        SUNNY     73  59  61 NW17G24   29.91S
WAYNE          SUNNY     72  61  68 NW15G23   29.94S
$$

NEZ050>053-065>068-078-088>093-171700-
SOUTHEAST NEBRASKA

CITY           SKY/WX    TMP DP  RH WIND       PRES   REMARKS
LINCOLN        SUNNY     76  58  53 NW17      29.98R
OMAHA EPPLEY   MOSUNNY   76  59  55 NW17      29.92R
BEATRICE       SUNNY     75  60  58 NW13      30.00R
FALLS CITY     SUNNY     75  60  59 NW18      29.95R
NEBRASKA CITY  SUNNY     74  61  63 NW20      29.96R
PLATTSMOUTH    SUNNY     73  59  62 W16G23    29.94R
$$

NEZ044-045-051>053-067-171700-
OMAHA AREA

CITY           SKY/WX    TMP DP  RH WIND       PRES   REMARKS
OMAHA EPPLEY   MOSUNNY   76  59  55 NW17      29.92R
BLAIR          RAIN      72  61  68 W15G21    29.93S
FREMONT        SUNNY     73  61  64 NW14      29.96R
MILLARD        SUNNY     75  60  58 NW14G21   29.94R
OFFUTT AFB     SUNNY     76  58  51 NW15G21   29.92R
PLATTSMOUTH    SUNNY     73  59  62 W16G23    29.94R
WAHOO          FAIR      73  61  67 NW17      29.96R
$$




USA.gov is the U.S. government's official web portal to all federal, state and local government web resources and services.